| time (UTC) | temp F | wind direction | speed MPH | gust MPH | rain 1hr in | rain 24hr in | rain mn in | humidity % | barometer mb |
| 20260902203935 | 72 | 14 | 9.0 | 19.0 | 0.03 | 0.07 | 0.07 | 49 | 1016.0 |
| 20260902202706 | 77 | 15 | 6.0 | 13.0 | 0.00 | 0.03 | 0.03 | 38 | 1016.0 |
| 20260902201435 | 80 | 274 | 3.0 | 5.0 | 0.00 | 0.03 | 0.03 | 34 | 1016.0 |
| 20260902200206 | 80 | 244 | 0.0 | 4.0 | 0.00 | 0.03 | 0.03 | 32 | 1015.0 |
| 20260902194935 | 81 | 0 | 0.0 | 0.0 | 0.00 | 0.03 | 0.03 | 31 | 1015.0 |
| 20260902193706 | 81 | 0 | 0.0 | 0.0 | 0.00 | 0.03 | 0.03 | 31 | 1016.0 |
| 20260902192435 | 81 | 0 | 0.0 | 0.0 | 0.00 | 0.03 | 0.03 | 31 | 1016.0 |
| 20260902191206 | 81 | 0 | 0.0 | 0.0 | 0.00 | 0.03 | 0.03 | 30 | 1016.0 |
| 20260902185935 | 81 | 0 | 0.0 | 0.0 | 0.00 | 0.03 | 0.03 | 30 | 1016.0 |
| 20260902183435 | 81 | 0 | 0.0 | 0.0 | 0.00 | 0.03 | 0.03 | 29 | 1015.0 |
| 20260902182205 | 81 | 0 | 0.0 | 0.0 | 0.00 | 0.03 | 0.03 | 29 | 1015.0 |
| 20260902180934 | 81 | 176 | 0.0 | 2.0 | 0.00 | 0.03 | 0.03 | 28 | 1015.0 |
| 20260902175705 | 82 | 163 | 0.0 | 3.0 | 0.00 | 0.03 | 0.03 | 28 | 1015.0 |
| 20260902171935 | 83 | 0 | 0.0 | 0.0 | 0.00 | 0.03 | 0.03 | 26 | 1015.0 |
| 20260902170705 | 83 | 131 | 0.0 | 3.0 | 0.00 | 0.03 | 0.03 | 26 | 1015.0 |
| 20260902165434 | 83 | 0 | 0.0 | 0.0 | 0.00 | 0.03 | 0.03 | 24 | 1015.0 |
| 20260902164205 | 84 | 158 | 0.0 | 3.0 | 0.00 | 0.03 | 0.03 | 24 | 1015.0 |
| 20260902162934 | 85 | 161 | 1.0 | 5.0 | 0.00 | 0.03 | 0.03 | 23 | 1015.0 |
| 20260902161705 | 85 | 127 | 2.0 | 5.0 | 0.00 | 0.03 | 0.03 | 20 | 1015.0 |
| 20260902160434 | 86 | 149 | 0.0 | 4.0 | 0.00 | 0.03 | 0.03 | 19 | 1015.0 |
| 20260902153934 | 87 | 170 | 4.0 | 7.0 | 0.00 | 0.03 | 0.03 | 22 | 1015.0 |
| 20260902152705 | 88 | 165 | 5.0 | 8.0 | 0.00 | 0.03 | 0.03 | 19 | 1015.0 |
| 20260902151434 | 88 | 171 | 3.0 | 8.0 | 0.00 | 0.03 | 0.03 | 16 | 1015.0 |
| 20260902150204 | 89 | 174 | 3.0 | 7.0 | 0.00 | 0.03 | 0.03 | 14 | 1015.0 |
| 20260902144934 | 89 | 170 | 4.0 | 8.0 | 0.00 | 0.03 | 0.03 | 15 | 1015.0 |
| 20260902143705 | 89 | 164 | 6.0 | 9.0 | 0.00 | 0.03 | 0.03 | 16 | 1015.0 |
| 20260902142434 | 88 | 173 | 4.0 | 6.0 | 0.00 | 0.03 | 0.03 | 16 | 1015.0 |
| 20260902141204 | 89 | 184 | 2.0 | 7.0 | 0.00 | 0.03 | 0.03 | 16 | 1015.0 |
| 20260902135933 | 89 | 155 | 1.0 | 5.0 | 0.00 | 0.03 | 0.03 | 16 | 1015.0 |
| 20260902134704 | 89 | 171 | 4.0 | 6.0 | 0.00 | 0.03 | 0.03 | 17 | 1015.0 |
| 20260902132351 | 89 | 171 | 2.0 | 6.0 | 0.00 | 0.03 | 0.03 | 19 | 1015.0 |
| 20260902125851 | 89 | 159 | 3.0 | 8.0 | 0.00 | 0.03 | 0.03 | 21 | 1016.0 |
| 20260902123350 | 88 | 202 | 2.0 | 6.0 | 0.00 | 0.03 | 0.03 | 23 | 1016.0 |
| 20260902120850 | 88 | 247 | 4.0 | 8.0 | 0.00 | 0.03 | 0.03 | 26 | 1017.0 |
| 20260902115621 | 88 | 238 | 5.0 | 8.0 | 0.00 | 0.03 | 0.03 | 27 | 1017.0 |
| 20260902114350 | 87 | 206 | 4.0 | 6.0 | 0.00 | 0.03 | 0.03 | 28 | 1017.0 |
| 20260902113121 | 87 | 241 | 4.0 | 7.0 | 0.00 | 0.03 | 0.03 | 29 | 1017.0 |
| 20260902111850 | 87 | 249 | 5.0 | 8.0 | 0.00 | 0.03 | 0.03 | 29 | 1017.0 |
| 20260902110621 | 87 | 228 | 4.0 | 8.0 | 0.00 | 0.03 | 0.03 | 29 | 1017.0 |
| 20260902105350 | 86 | 247 | 5.0 | 8.0 | 0.00 | 0.03 | 0.03 | 29 | 1017.0 |
| 20260902102850 | 86 | 194 | 4.0 | 7.0 | 0.00 | 0.03 | 0.03 | 31 | 1017.0 |
| 20260902101620 | 85 | 177 | 4.0 | 7.0 | 0.00 | 0.03 | 0.03 | 32 | 1017.0 |
| 20260902100349 | 85 | 178 | 2.0 | 6.0 | 0.00 | 0.03 | 0.03 | 31 | 1017.0 |
| 20260902095120 | 84 | 203 | 1.0 | 4.0 | 0.00 | 0.03 | 0.03 | 31 | 1018.0 |
| 20260902093849 | 84 | 184 | 3.0 | 5.0 | 0.00 | 0.03 | 0.03 | 33 | 1018.0 |
| 20260902092620 | 84 | 210 | 2.0 | 6.0 | 0.00 | 0.03 | 0.03 | 36 | 1018.0 |
| 20260902091349 | 84 | 211 | 3.0 | 5.0 | 0.00 | 0.03 | 0.03 | 41 | 1018.0 |
| 20260902090120 | 84 | 175 | 2.0 | 5.0 | 0.00 | 0.03 | 0.03 | 43 | 1018.0 |
| 20260902084849 | 83 | 203 | 2.0 | 6.0 | 0.00 | 0.03 | 0.03 | 45 | 1018.0 |
| 20260902083620 | 83 | 245 | 1.0 | 5.0 | 0.00 | 0.03 | 0.03 | 46 | 1018.0 |
| 20260902082349 | 83 | 240 | 2.0 | 5.0 | 0.00 | 0.03 | 0.03 | 47 | 1018.0 |
| 20260902075849 | 83 | 241 | 1.0 | 4.0 | 0.00 | 0.03 | 0.03 | 47 | 1018.0 |
| 20260902074620 | 83 | 234 | 2.0 | 4.0 | 0.00 | 0.03 | 0.03 | 47 | 1018.0 |
| 20260902073349 | 82 | 238 | 0.0 | 3.0 | 0.00 | 0.03 | 0.03 | 46 | 1018.0 |
| 20260902072120 | 83 | 257 | 0.0 | 2.0 | 0.00 | 0.03 | 0.03 | 47 | 1018.0 |
| 20260902070849 | 83 | 0 | 0.0 | 0.0 | 0.00 | 0.03 | 0.03 | 47 | 1017.0 |
| 20260902064349 | 82 | 0 | 0.0 | 0.0 | 0.00 | 0.03 | 0.03 | 50 | 1017.0 |
| 20260902063119 | 81 | 268 | 0.0 | 3.0 | 0.00 | 0.03 | 0.03 | 52 | 1017.0 |
| 20260902061849 | 80 | 259 | 2.0 | 4.0 | 0.00 | 0.03 | 0.03 | 54 | 1017.0 |
| 20260902060619 | 79 | 259 | 0.0 | 4.0 | 0.00 | 0.03 | 0.03 | 55 | 1017.0 |
| 20260902055348 | 78 | 0 | 0.0 | 0.0 | 0.00 | 0.03 | 0.03 | 55 | 1017.0 |
| 20260902052848 | 76 | 0 | 0.0 | 0.0 | 0.00 | 0.03 | 0.03 | 55 | 1017.0 |
| 20260902051619 | 76 | 0 | 0.0 | 0.0 | 0.00 | 0.03 | 0.03 | 55 | 1017.0 |
| 20260902050348 | 76 | 0 | 0.0 | 0.0 | 0.00 | 0.03 | 0.03 | 56 | 1017.0 |
| 20260902045119 | 75 | 0 | 0.0 | 0.0 | 0.00 | 0.03 | 0.03 | 55 | 1017.0 |
| 20260902044711 | 75 | 0 | 0.0 | 0.0 | 0.00 | 0.03 | 0.03 | 56 | 1017.0 |
| 20260902043440 | 75 | 9 | 0.0 | 2.0 | 0.00 | 0.03 | 0.03 | 56 | 1017.0 |
| 20260902042210 | 75 | 8 | 1.0 | 3.0 | 0.00 | 0.03 | 0.03 | 58 | 1017.0 |
| 20260902040940 | 75 | 0 | 0.0 | 0.0 | 0.00 | 0.03 | 0.03 | 59 | 1017.0 |
| 20260902035710 | 75 | 8 | 1.0 | 2.0 | 0.00 | 0.03 | 0.03 | 59 | 1016.0 |
| 20260902034439 | 75 | 0 | 0.0 | 0.0 | 0.00 | 0.03 | 0.03 | 59 | 1017.0 |
| 20260902031940 | 75 | 6 | 2.0 | 3.0 | 0.00 | 0.03 | 0.03 | 57 | 1017.0 |
| 20260902030710 | 75 | 8 | 2.0 | 4.0 | 0.00 | 0.03 | 0.03 | 56 | 1017.0 |
| 20260902025439 | 76 | 11 | 2.0 | 4.0 | 0.00 | 0.03 | 0.03 | 56 | 1017.0 |
| 20260902024211 | 76 | 14 | 1.0 | 3.0 | 0.00 | 0.03 | 0.03 | 55 | 1017.0 |
| 20260902022939 | 76 | 16 | 0.0 | 2.0 | 0.03 | 0.03 | 0.03 | 54 | 1017.0 |
| 20260902021711 | 76 | 18 | 1.0 | 3.0 | 0.03 | 0.03 | 0.03 | 50 | 1016.0 |
| 20260902020439 | 77 | 18 | 2.0 | 4.0 | 0.03 | 0.03 | 0.03 | 49 | 1017.0 |
| 20260902015210 | 77 | 24 | 3.0 | 4.0 | 0.03 | 0.03 | 0.03 | 48 | 1016.0 |
| 20260902013939 | 78 | 22 | 4.0 | 8.0 | 0.03 | 0.03 | 0.03 | 46 | 1016.0 |
| 20260902012710 | 78 | 19 | 4.0 | 8.0 | 0.00 | 0.00 | 0.00 | 44 | 1016.0 |
| 20260902011439 | 78 | 13 | 3.0 | 6.0 | 0.00 | 0.00 | 0.00 | 44 | 1017.0 |
| 20260902010210 | 78 | 16 | 4.0 | 7.0 | 0.00 | 0.00 | 0.00 | 45 | 1017.0 |
| 20260902004939 | 78 | 263 | 0.0 | 2.0 | 0.00 | 0.00 | 0.00 | 45 | 1017.0 |
| 20260902003710 | 78 | 0 | 0.0 | 0.0 | 0.00 | 0.00 | 0.00 | 44 | 1017.0 |
| 20260902002439 | 78 | 0 | 0.0 | 0.0 | 0.00 | 0.00 | 0.00 | 43 | 1017.0 |
| 20260902001210 | 78 | 0 | 0.0 | 0.0 | 0.00 | 0.00 | 0.00 | 43 | 1017.0 |
| 20260901235939 | 78 | 262 | 0.0 | 4.0 | 0.00 | 0.00 | 0.00 | 43 | 1016.0 |
| 20260901234710 | 78 | 252 | 0.0 | 2.0 | 0.00 | 0.00 | 0.00 | 42 | 1016.0 |
| 20260901233439 | 79 | 0 | 0.0 | 0.0 | 0.00 | 0.00 | 0.00 | 42 | 1016.0 |
| 20260901232210 | 79 | 0 | 0.0 | 0.0 | 0.00 | 0.00 | 0.00 | 42 | 1016.0 |
| 20260901230939 | 79 | 0 | 0.0 | 0.0 | 0.00 | 0.00 | 0.00 | 43 | 1016.0 |
| 20260901225710 | 79 | 0 | 0.0 | 0.0 | 0.00 | 0.00 | 0.00 | 43 | 1016.0 |
| 20260901224439 | 79 | 0 | 0.0 | 0.0 | 0.00 | 0.00 | 0.00 | 43 | 1016.0 |
| 20260901223209 | 79 | 23 | 0.0 | 3.0 | 0.00 | 0.00 | 0.00 | 43 | 1016.0 |
| 20260901221938 | 79 | 15 | 2.0 | 4.0 | 0.00 | 0.00 | 0.00 | 42 | 1016.0 |
| 20260901220709 | 79 | 13 | 2.0 | 4.0 | 0.00 | 0.00 | 0.00 | 40 | 1016.0 |
| 20260901215438 | 79 | 12 | 2.0 | 4.0 | 0.00 | 0.00 | 0.00 | 37 | 1016.0 |
| 20260901214209 | 79 | 0 | 0.0 | 0.0 | 0.00 | 0.00 | 0.00 | 35 | 1016.0 |
| 20260901212938 | 79 | 0 | 0.0 | 0.0 | 0.00 | 0.00 | 0.00 | 34 | 1016.0 |
| 20260901211709 | 79 | 4 | 0.0 | 3.0 | 0.00 | 0.00 | 0.00 | 34 | 1016.0 |
| 20260901210438 | 79 | 352 | 0.0 | 3.0 | 0.00 | 0.00 | 0.00 | 34 | 1016.0 |